FENGYUN 1C DEB, 30325

Orbit data source: Space-Track

FENGYUN 1C DEB, 30325 is space debris in SSO originally from a launch on Mon, 10 May 1999 UTC launched from the Taiyaun Space Center, China (TSC). Fengyun 1C debris stems from the Chinese weather satellite Fengyun-1C, which was intentionally destroyed by a Chinese anti-satellite missile in 2007. This event dramatically increased the amount of space debris, with thousands of trackable fragments posing hazards to satellites and human spaceflight. The Fengyun 1C debris cloud has become a focal point in discussions about space sustainability and the need for international regulations to prevent the creation of new debris.

Loading next visibility...
Identifier
30325, 1999-025AAL
Orbit
SSO
Country
Flag of CNCN / PRC
Related business
Manufacturer
Unknown
Mission
Spacecraft
Bus & Motor
Unknown
Mass
Unknown
Launch date (UTC)
1999-05-10 (26 years ago)
Launch vehicle
Unknown
Launch site
Taiyaun Space Center, China (TSC)
Object type
Payload
Rocket body
Debris
Shape & HBR
Unknown shape, 0.1 m
Radar Cross Section
Small (<0.1 m²)

Expand to show TLE details & history
Last TLE update: 1 day ago

TLE from 1 day ago
0 FENGYUN 1C DEB
1 30325U 99025AAL 25298.33880144  .00000255  00000-0  17150-3 0  9994
2 30325  98.7383 319.1698 0016778  34.5390 325.6867 14.09080466963343
Epoch: 2025-10-25T08:07Z
TLE epoch observation values (Epoch: 2025-10-25T08:07:52.444Z)
Latitude
-0.00002°
Longitude
163.23051°
Altitude
855.389 km
Speed
7.43 km/s
True Right ascension
21h 16m 40s
True Declination
0° 00' 00"
Sunlit
Object was in daylight at epoch
Visualization orbit readout
Latitude
Unknown
Longitude
Unknown
Altitude
Unknown
Speed
Unknown
Apparent Right ascension
Unknown
Apparent Declination
Unknown
Sunlit
N/A
Visualization observer readout
Local Sidereal Time
09:41:58
Azimuth
Unknown
Elevation
Unknown
Doppler factor
Unknown
Orbital elements
Apogee altitude
871.838 km
Perigee altitude
847.551 km
Semi-major axis
7,237.832 km
Eccentricity
0.00168
Inclination
98.7383°
RAAN
319.1698°
Arg. of periapsis
34.539°
True anomaly
325.57813°
Mean anomaly
325.6867°
Eccentric anomaly
325.63243°
Mean motion
3.52477 °/min
Orbital period
102.13 mins
BSTAR
0.0001715
Loading maneuver chart data...
Computing Atmospheric mass density...

Documentation

Showing up to 5 results
|